[Iaude] MPEC G22: 2021 JV6 [a=2.09,e=0.45,i=5.9,H=23.61]
    mpec at cfa.harvard.edu 
    mpec at cfa.harvard.edu
       
    Wed Apr  3 10:11:00 EDT 2024
    
    
  
M.P.E.C. 2024-G22                                 Issued 2024 April 3, 14:09 UT
     The Minor Planet Electronic Circulars contain information on unusual
         minor planets, routine data on comets and natural satellites,
         and occasional editorial announcements.  They are published
    on behalf of Division F of the International Astronomical Union by the
          Minor Planet Center, Smithsonian Astrophysical Observatory,
                          Cambridge, MA 02138, U.S.A.
			  
             Prepared using the Tamkin Foundation Computer Network
                              MPC at CFA.HARVARD.EDU
            URL https://www.minorplanetcenter.net/    ISSN 1523-6714
                                    2021 JV6                                    
                           Revision to MPEC 2021-J227                           
Additional Observations:
     K21J06V  C2024 02 05.49661510 41 18.129-13 44 35.98         23.20GVEG022F52
     K21J06V  C2024 02 05.50773510 41 18.775-13 44 50.49         23.49GVEG022F52
     K21J06V  C2024 02 15.44638910 52 41.350-17 29 43.24         22.42GVEG022F52
     K21J06V  C2024 02 15.45811410 52 42.064-17 29 59.02         22.25GVEG022F52
     K21J06V  C2024 02 15.46988010 52 42.785-17 30 15.30         22.87GVEG022F52
     K21J06V  C2024 04 01.43801912 38 39.867-26 44 15.69         20.88wXEG022F51
     K21J06V  C2024 04 01.44836512 38 42.024-26 44 10.19         20.85wXEG022F51
     K21J06V  C2024 04 01.45868612 38 44.160-26 44 04.44         20.99wXEG022F51
Observer details:
F51 Pan-STARRS 1, Haleakala.  Observers J. Herman, T. Lowe, P. Minguez, A.
    Schultz, I. Smith.  Measurers K. Chambers, T. de Boer, J. Fairlamb, H.
    Gao, M. Huber, C.-C. Lin, E. Magnier, Y. Ramanjooloo, R. Wainscoat, R.
    Weryk.  1.8-m Ritchey-Chretien + CCD.
F52 Pan-STARRS 2, Haleakala.  Observers J. Herman, T. Lowe, P. Minguez, A.
    Schultz, I. Smith.  Measurers K. Chambers, T. de Boer, J. Fairlamb, H.
    Gao, M. Huber, C.-C. Lin, E. Magnier, Y. Ramanjooloo, R. Wainscoat, R.
    Weryk.  1.8-m Ritchey-Chretien + CCD.
First and last observations above in comparison with prediction:
Residuals in seconds of arc (or two decimals in degrees), reference and Delta-T
240205 F52 3.74- 1.19-    240401 F51 9.48- 2.58-    E2024-B91   +0.07 days
Orbital elements:
2021 JV6                                                 Earth MOID = 0.1574 AU
Epoch 2024 Mar. 31.0 TT = JDT 2460400.5                 Veres                   
M 358.45405              (2000.0)            P               Q                  
n   0.32730582     Peri.  333.81941     -0.96005938     +0.27116031             
a   2.0852921      Node   222.10405     -0.23525215     -0.91576088             
e   0.4469954      Incl.    5.90504     -0.15146755     -0.29640193             
P   3.01           H   23.61          G   0.15           U   0                  
Residuals in seconds of arc
210512 G96  0.5+  0.3+    210514 807  0.0   0.0     240205 F52  0.1+  0.3+
210512 G96  0.2+  0.7+    210514 568  0.0   0.0     240215 F52  0.0   0.0
210512 G96  0.1+  0.0     210514 568  0.0   0.0     240215 F52  0.1-  0.1+
210512 F51  0.3-  0.1+    210514 568  0.0   0.0     240215 F52  0.0   0.4-
210512 F51  0.0   0.1-    210514 568  0.0   0.0     240401 F51  0.0   0.1+
210512 F51  0.1-  0.1+    210518 568  0.1+  0.0     240401 F51  0.1+  0.0
210514 807  0.2+  0.0     210518 568  0.1-  0.0     240401 F51  0.0   0.2+
210514 807 (0.7+  0.2+)   240205 F52  0.1-  0.4-
Ephemeris:
2021 JV6                 a,e,i = 2.09, 0.45, 6                   q = 1.1532
Date    TT    R. A. (2000) Decl.     Delta      r    Elong.  Phase     V
2024 03 04    11 18 13.3 -23 31 24   0.2362  1.2014   149.7    24.6    22.0
...
2024 03 19    11 52 50.9 -26 48 12   0.1894  1.1669   152.6    23.1    21.4
...
2024 03 27    12 18 33.2 -27 11 42   0.1727  1.1570   155.3    21.1    21.1
...
2024 04 02    12 40 50.0 -26 38 29   0.1641  1.1535   158.2    18.7    21.0
2024 04 03    12 44 43.8 -26 28 19   0.1630  1.1533   158.8    18.3    20.9
2024 04 04    12 48 39.8 -26 16 48   0.1621  1.1532   159.4    17.8    20.9
...
2024 04 10    13 12 42.7 -24 40 38   0.1585  1.1546   163.2    14.5    20.7
...
2024 04 18    13 44 12.5 -21 33 51   0.1602  1.1619   169.2     9.3    20.6
...
2024 05 03    14 33 07.6 -14 50 21   0.1838  1.1918   177.9     1.8    20.5
A. U. Tomatic                (C) Copyright 2024 MPC           M.P.E.C. 2024-G22
    
    
More information about the Iaude
mailing list